Slidell, LA

10:15 AM CDT on July 20, 2017 (GMT -0500)
Slidell

Weather History for KASD - March, 2013

Change the Weather History Date:

Wednesday, March 6, 2013

  Actual Average (KNEW) Record (KNEW)
Temperature  
Mean Temperature 55 °F -  
Max Temperature 75 °F 67 °F 84 °F (1955)
Min Temperature 35 °F 53 °F 31 °F (1960)
Degree Days  
Heating Degree Days 10    
Growing Degree Days 5 (Base 50)    
Moisture  
Dew Point 31 °F    
Average Humidity 53    
Maximum Humidity 92    
Minimum Humidity 16    
Precipitation  
Precipitation 0.00 in - - ()
Sea Level Pressure  
Sea Level Pressure 30.26 in    
Wind  
Wind Speed 5 mph (NNW)    
Max Wind Speed 12 mph    
Max Gust Speed 18 mph    
Visibility 10 miles    
Events      
Averages and records for this station are not official NWS values.
T = Trace of Precipitation, MM = Missing Value Source: NWS Daily Summary

Daily Weather History Graph

Daily Weather History Graph

Search for Another Location

Airport or City:

Trip Planner

Search our weather history database for the weather conditions in past years. The results will help you decide how hot, cold, wet, or windy it might be!

Date:

Astronomy

Mar. 06, 2013 Rise Set
Actual Time 6:19 AM CST 6:01 PM CST
Civil Twilight 5:55 AM CST 6:25 PM CST
Nautical Twilight 5:27 AM CST 6:53 PM CST
Astronomical Twilight 4:59 AM CST 7:21 PM CST
Moon 2:11 AM CST (3/6) 1:00 PM CST (3/6)
Length of Visible Light 12h 30m
Length of Day
11h 42m
Waning Crescent, 29% of the Moon is Illuminated
Mar 6
Waning Crescent
Mar 11
New
Mar 19
First Quarter
Mar 27
Full
Apr 2
Last Quarter

Hourly Weather History & Observations

Time (CST) Temp. Windchill Dew Point Humidity Pressure Visibility Wind Dir Wind Speed Gust Speed Precip Events Conditions
12:53 AM 50.0 °F - 35.1 °F 57% 30.21 in 10.0 mi NNW 4.6 mph - N/A   Clear
1:53 AM 48.9 °F - 33.1 °F 54% 30.22 in 10.0 mi NNW 5.8 mph - N/A   Clear
2:53 AM 45.0 °F 43.5 °F 34.0 °F 65% 30.22 in 10.0 mi NNW 3.5 mph - N/A   Clear
3:53 AM 44.1 °F - 32.0 °F 63% 30.24 in 10.0 mi Calm Calm - N/A   Clear
4:53 AM 39.9 °F - 32.0 °F 73% 30.26 in 10.0 mi Calm Calm - N/A   Clear
5:53 AM 36.0 °F - 32.0 °F 86% 30.29 in 10.0 mi Calm Calm - N/A   Clear
6:53 AM 35.1 °F - 33.1 °F 92% 30.31 in 10.0 mi North - - N/A   Clear
7:53 AM 45.0 °F 42.6 °F 28.9 °F 53% 30.33 in 10.0 mi NNW 4.6 mph - N/A   Clear
8:53 AM 48.9 °F - 28.0 °F 44% 30.33 in 10.0 mi NNW 10.4 mph - N/A   Clear
9:53 AM 52.0 °F - 26.1 °F 37% 30.32 in 10.0 mi North 10.4 mph 17.3 mph N/A   Clear
10:53 AM 54.0 °F - 26.1 °F 34% 30.31 in 10.0 mi NNW 5.8 mph - N/A   Clear
11:53 AM 57.9 °F - 25.0 °F 28% 30.28 in 10.0 mi NNW 11.5 mph 16.1 mph N/A   Clear
12:53 PM 75.0 °F - 26.1 °F 16% 30.25 in 10.0 mi North 11.5 mph 18.4 mph N/A   Clear
1:53 PM 68.0 °F - 26.1 °F 21% 30.22 in 10.0 mi North 11.5 mph 18.4 mph N/A   Clear
2:53 PM - - - N/A% 30.20 in 10.0 mi North 10.4 mph - N/A   Clear
3:53 PM 64.0 °F - 26.1 °F 24% 30.19 in 10.0 mi WNW 5.8 mph - N/A   Clear
4:53 PM 63.0 °F - 26.1 °F 25% 30.20 in 10.0 mi NNW 6.9 mph - N/A   Clear
5:53 PM 59.0 °F - 28.0 °F 31% 30.21 in 10.0 mi NNW 3.5 mph - N/A   Clear
6:53 PM 50.0 °F - 37.0 °F 61% 30.23 in 10.0 mi Calm Calm - N/A   Clear
7:53 PM 46.9 °F - 36.0 °F 66% 30.25 in 10.0 mi Calm Calm - N/A   Clear
8:53 PM 43.0 °F - 37.0 °F 80% 30.27 in 10.0 mi Calm Calm - N/A   Clear
9:53 PM 43.0 °F 41.3 °F 35.1 °F 74% 30.29 in 10.0 mi North 3.5 mph - N/A   Clear
10:53 PM 43.0 °F 41.3 °F 33.1 °F 68% 30.28 in 10.0 mi NNE 3.5 mph - N/A   Clear
11:53 PM 41.0 °F 38.0 °F 32.0 °F 70% 30.28 in 10.0 mi North 4.6 mph - N/A   Clear